Weather History for VTSS - October, 2013

Change the Weather History Date:

Saturday, October 26, 2013

  Actual Average Record
Temperature  
Mean Temperature 80 °F -  
Max Temperature 87 °F 84 °F 93 °F (2010)
Min Temperature 73 °F 73 °F 73 °F (2001)
Cooling Degree Days 15    
Growing Degree Days 30 (Base 50)    
Moisture  
Dew Point 73 °F    
Average Humidity 86    
Maximum Humidity 100    
Minimum Humidity 52    
Precipitation  
Precipitation 0.63 in - - ()
Sea Level Pressure  
Sea Level Pressure 29.88 in    
Wind  
Wind Speed 1 mph ()    
Max Wind Speed 15 mph    
Max Gust Speed -    
Visibility 4.8 miles    
Events Rain , Thunderstorm    
Averages and records for this station are not official NWS values.
T = Trace of Precipitation, MM = Missing Value Source: Averaged Metar Reports

Daily Weather History Graph

Daily Weather History Graph

Search for Another Location

Airport or City:

Trip Planner

Search our weather history database for the weather conditions in past years. The results will help you decide how hot, cold, wet, or windy it might be!

Date:

Astronomy

Oct. 26, 2013 Rise Set
Actual Time 6:05 AM ICT 5:59 PM ICT
Civil Twilight 5:43 AM ICT 6:20 PM ICT
Nautical Twilight 5:19 AM ICT 6:45 PM ICT
Astronomical Twilight 4:54 AM ICT 7:10 PM ICT
Moon 11:56 PM ICT (10/26) 11:48 AM ICT (10/26)
Length of Visible Light 12h 37m
Length of Day
11h 54m
Waning Gibbous, 57% of the Moon is Illuminated
Oct 26
Waning Gibbous
Oct 27
Last Quarter
Nov 3
New
Nov 10
First Quarter
Nov 17
Full

Hourly Weather History & Observations

Time (ICT) Temp. Heat Index Dew Point Humidity Pressure Visibility Wind Dir Wind Speed Gust Speed Precip Events Conditions
12:00 AM 75.2 °F - 73.4 °F 94% 29.89 in 6.2 mi Calm Calm - N/A   Mostly Cloudy
12:30 AM 75.2 °F - 73.4 °F 94% 29.89 in 6.2 mi Calm Calm - N/A   Mostly Cloudy
1:00 AM 74 °F - 72 °F 92% 29.89 in 6 mi Calm Calm - -   Partly Cloudy
1:00 AM 73.4 °F - 71.6 °F 94% 29.89 in 6.2 mi Calm Calm - N/A   Mostly Cloudy
1:30 AM 73.4 °F - 71.6 °F 94% 29.86 in 5.0 mi Calm Calm - N/A   Mostly Cloudy
2:00 AM 73.4 °F - 71.6 °F 94% 29.86 in 5.0 mi Calm Calm - N/A   Mostly Cloudy
2:30 AM 73.4 °F - 71.6 °F 94% 29.83 in 5.0 mi Calm Calm - N/A   Mostly Cloudy
3:00 AM 73.4 °F - 71.6 °F 94% 29.83 in 5.0 mi Calm Calm - N/A   Mostly Cloudy
4:00 AM 73.4 °F - 71.6 °F 94% 29.83 in 5.0 mi Calm Calm - N/A   Mostly Cloudy
5:00 AM 73.4 °F - 71.6 °F 94% 29.86 in 1.2 mi Calm Calm - N/A   Mostly Cloudy
5:30 AM 73.4 °F - 71.6 °F 94% 29.86 in 1.2 mi Calm Calm - N/A   Mostly Cloudy
6:00 AM 73.4 °F - 71.6 °F 94% 29.89 in 1.2 mi Calm Calm - N/A   Mostly Cloudy
6:30 AM 73.4 °F - 73.4 °F 100% 29.89 in 0.6 mi Calm Calm - N/A   Mostly Cloudy
7:00 AM 73.4 °F - 71.6 °F 94% 29.89 in 0.6 mi Calm Calm - N/A   Mostly Cloudy
7:30 AM 75.2 °F - 73.4 °F 94% 29.92 in 1.2 mi Calm Calm - N/A   Mostly Cloudy
8:00 AM 75.2 °F - 73.4 °F 94% 29.92 in 2.5 mi Calm Calm - N/A   Mostly Cloudy
8:30 AM 77.0 °F - 73.4 °F 89% 29.95 in 3.1 mi Calm Calm - N/A   Mostly Cloudy
9:00 AM 78.8 °F - 73.4 °F 83% 29.95 in 5.0 mi West 2.3 mph - N/A   Overcast
9:30 AM 80.6 °F 86.2 °F 75.2 °F 84% 29.95 in 5.0 mi West 2.3 mph - N/A   Overcast
10:00 AM 80.6 °F 85.4 °F 73.4 °F 79% 29.95 in 5.6 mi Calm Calm - N/A   Overcast
10:30 AM 84.2 °F 92.3 °F 75.2 °F 74% 29.92 in 6.2 mi Calm Calm - N/A   Mostly Cloudy
11:00 AM 82.4 °F 87.2 °F 71.6 °F 70% 29.92 in 6.2 mi West 3.5 mph - N/A   Mostly Cloudy
11:30 AM 84.2 °F 90.9 °F 73.4 °F 70% 29.92 in 6.2 mi SW 2.3 mph - N/A   Mostly Cloudy
12:00 PM 86.0 °F 93.4 °F 73.4 °F 66% 29.89 in 6.2 mi WSW 2.3 mph - N/A   Mostly Cloudy
12:30 PM 87.8 °F 95.6 °F 73.4 °F 62% 29.86 in 6.2 mi NW 3.5 mph - N/A   Mostly Cloudy
1:00 PM 87 °F - 72 °F 52% 29.86 in 6 mi South 3.5 mph - -   Partly Cloudy
1:00 PM 87.8 °F 93.8 °F 71.6 °F 58% 29.86 in 6.2 mi South 3.5 mph - N/A   Mostly Cloudy
1:30 PM 87.8 °F 95.6 °F 73.4 °F 62% 29.83 in 6.2 mi SSE 3.5 mph - N/A   Mostly Cloudy
2:00 PM 86.0 °F 95.1 °F 75.2 °F 70% 29.80 in 6.2 mi WNW 9.2 mph - N/A   Mostly Cloudy
2:30 PM 86.0 °F 95.1 °F 75.2 °F 70% 29.80 in 6.2 mi NW 4.6 mph - N/A   Mostly Cloudy
3:00 PM 82.4 °F 88.2 °F 73.4 °F 74% 29.80 in 6.2 mi ENE 11.5 mph - N/A Thunderstorm Thunderstorm
3:30 PM 75.2 °F - 73.4 °F 94% 29.83 in 3.1 mi NE 15.0 mph - N/A Rain , Thunderstorm Thunderstorms and Rain
4:00 PM 75.2 °F - 71.6 °F 89% 29.80 in 5.6 mi NE 5.8 mph - N/A Rain Rain
4:30 PM 75.2 °F - 73.4 °F 94% 29.83 in 5.6 mi East 3.5 mph - N/A Rain Light Rain
5:00 PM 75.2 °F - 73.4 °F 94% 29.83 in 5.6 mi SSW 3.5 mph - N/A Rain Light Rain
5:30 PM 77.0 °F - 73.4 °F 89% 29.83 in 6.2 mi WNW 4.6 mph - N/A   Mostly Cloudy
6:00 PM 77.0 °F - 73.4 °F 89% 29.83 in 6.2 mi WSW 2.3 mph - N/A   Mostly Cloudy
6:30 PM 77.0 °F - 73.4 °F 89% 29.86 in 6.2 mi Calm Calm - N/A   Mostly Cloudy
7:00 PM 76 °F - 74 °F 91% 29.87 in 4 mi WSW 3.5 mph - - Rain Light Rain
7:00 PM 75.2 °F - 73.4 °F 94% 29.86 in 4.3 mi WSW 2.3 mph - N/A Rain Light Rain
7:30 PM 77.0 °F - 75.2 °F 94% 29.89 in 5.0 mi SSW 2.3 mph - N/A Rain Light Rain
8:00 PM 77.0 °F - 73.4 °F 89% 29.89 in 5.0 mi Calm Calm - N/A   Mostly Cloudy
8:30 PM 77.0 °F - 75.2 °F 94% 29.89 in 5.0 mi Calm Calm - N/A   Mostly Cloudy
9:00 PM 77.0 °F - 75.2 °F 94% 29.89 in 5.0 mi SSE 3.5 mph - N/A   Mostly Cloudy
9:30 PM 77.0 °F - 75.2 °F 94% 29.89 in 5.0 mi Calm Calm - N/A   Mostly Cloudy
10:00 PM 77.0 °F - 75.2 °F 94% 29.92 in 5.0 mi Calm Calm - N/A   Mostly Cloudy
10:30 PM 77.0 °F - 75.2 °F 94% 29.92 in 5.0 mi Calm Calm - N/A   Mostly Cloudy
11:00 PM 77.0 °F - 75.2 °F 94% 29.92 in 4.3 mi NNW 3.5 mph - N/A   Mostly Cloudy
11:30 PM 77.0 °F - 75.2 °F 94% 29.89 in 4.3 mi NW 2.3 mph - N/A   Mostly Cloudy